Regional Weather Roundup
Issued by NWS

Home | Current Version | Previous Version | Graphics & Text | Print | Product List | Glossary On
Versions: 1 2 3 4 5 6 7 8 9 10 11 12 13 14 15 16 17 18 19 20 21 22 23 24 25 26 27 28 29 30 31 32 33 34 35 36 37 38 39 40 41 42 43 44 45 46 47 48 49 50
000
ASUS45 KSLC 270710
RWRUT

UTAH REGIONAL WEATHER ROUNDUP
NATIONAL WEATHER SERVICE SALT LAKE CITY UT
1200 AM MST FRI FEB 27 2015

UTZ001>011-023>025-270800-

NORTHERN UTAH

CITY           SKY/WX    TMP DP  RH WIND       PRES   REMARKS
BRIGHAM CITY   CLEAR     28  23  83 CALM      29.90F
HILL AFB       CLEAR     29  29  99 SE3       29.88F
LOGAN          CLEAR     24  21  88 CALM      29.90F
OGDEN          CLEAR     28  26  92 S6        29.89F WCI  22
PROVO AIRPORT  CLOUDY    36  28  75 W6        29.90F WCI  31
SALT LAKE CITY PTCLDY    32  29  88 SE7       29.89F WCI  26
VERNAL         MOCLDY    26  15  63 E6        29.89S WCI  19
WENDOVER       CLOUDY    37  27  65 W7        29.91F WCI  32
HEBER CITY     LGT SNOW  30  28  93 N5        29.87S WCI  25
WEST JORDAN    CLEAR     28  27  93 SW5       29.90F WCI  23

$$

UTZ012>022-026-027-270800-

SOUTHERN/CENTRAL UTAH

CITY           SKY/WX    TMP DP  RH WIND       PRES   REMARKS
BLANDING       CLOUDY    20  20  98 NW5       29.92F WCI  14
BRYCE CANYON   MOCLDY    19  18  95 W6        29.87F WCI  11
CEDAR CITY     PTCLDY    27  23  85 E3        29.88S
DELTA          CLOUDY    34  26  74 CALM      29.90F
HANKSVILLE     PTCLDY    28  28 100 CALM      29.89S
MILFORD        CLOUDY    32  23  69 N7        29.89F WCI  26
MOAB/CYNLANDS  CLOUDY    37  29  72 CALM      29.84S
PRICE          FOG       28  24  85 NE3       29.84S VSB 3/4
ST GEORGE      MOSUNNY   48  27  43 NE10      29.87F
KANAB            N/A     36  25  64 N6        29.90F WCI  31

$$

REGIONAL REPORTS     COLORADO/ARIZONA

CITY           SKY/WX    TMP DP  RH WIND       PRES   REMARKS
CRAIG, CO        N/A     20  18  92 SW3       29.86F
GRAND JUNCTION CLOUDY    34  25  69 CALM      29.84S
RIFLE          LGT SNOW  30  28  92 CALM      29.83F FOG
MONTROSE       CLOUDY    28  22  78 SE6       29.86F WCI  22
CORTEZ         FOG       26  25  96 NE5       29.85S VSB 1/4 WCI  20
PAGE, AZ       PTCLDY    39  29  67 SW5       29.86S
GRAND CANYON   CLEAR     22  19  89 CALM      29.88S
KINGMAN        CLEAR     39  26  59 E5        29.81F
FLAGSTAFF      CLEAR     25  17  72 CALM      29.89S

$$

REGIONAL REPORTS    NEVADA/IDAHO/WYOMING

CITY           SKY/WX    TMP DP  RH WIND       PRES   REMARKS
LAS VEGAS, NV  CLEAR     58  23  26 NE13      29.77R
ELY            CLOUDY    21  14  74 CALM      29.90F
ELKO           CLOUDY    33  26  75 CALM      29.89F
POCATELLO, ID  CLOUDY    30  25  81 CALM      29.89F
BURLEY         CLOUDY    34  30  85 SW6       29.86F WCI  29
EVANSTON, WY   CLOUDY    16  13  88 E13       29.85F WCI   2
ROCK SPRINGS   MOCLDY     5   1  83 E8        29.92F WCI  -8

$$


USA.gov is the U.S. government's official web portal to all federal, state and local government web resources and services.